This is the latest recevied weather packets stored in our database for station/object CE3PA-5. If no packets are shown the sender has not sent any weather packets the latest 10 day(s).
| Time | Temp. | Humidity | Pressure | Rain* | Wind** | Luminosity | Snow |
|---|---|---|---|---|---|---|---|
| 1777305341 | 27.22° C | 13% | 757.2 hPa | - | - | - | - |
| 1777303541 | 27.78° C | 14% | 757.2 hPa | - | - | - | - |
| 1777302641 | 26.67° C | 14% | 757.2 hPa | - | - | - | - |
| 1777301741 | 25.56° C | 14% | 757.2 hPa | - | - | - | - |
| 1777299041 | 22.22° C | 14% | 757.1 hPa | - | - | - | - |
| 1777298140 | 21.11° C | 14% | 757 hPa | - | - | - | - |
| 1777297240 | 19.44° C | 14% | 757 hPa | - | - | - | - |
| 1777295439 | 15.56° C | 15% | 756.8 hPa | - | - | - | - |
| 1777294539 | 13.33° C | 15% | 756.9 hPa | - | - | - | - |
| 1777293640 | 10° C | 16% | 756.9 hPa | - | - | - | - |
| 1777292742 | 6.11° C | 16% | 756.9 hPa | - | - | - | - |
| 1777291834 | 3.33° C | 17% | 756.8 hPa | - | - | - | - |
| 1777290934 | 2.22° C | 16% | 756.7 hPa | - | - | - | - |
| 1777290043 | 2.22° C | 16% | 756.6 hPa | - | - | - | - |
| 1777289142 | 2.22° C | 17% | 756.5 hPa | - | - | - | - |
| 1777288242 | 2.22° C | 17% | 756.4 hPa | - | - | - | - |
| 1777287342 | 2.78° C | 17% | 756.3 hPa | - | - | - | - |
| 1777286452 | 2.22° C | 17% | 756.4 hPa | - | - | - | - |
| 1777284642 | 2.22° C | 17% | 756.4 hPa | - | - | - | - |
| 1777283741 | 2.22° C | 17% | 756.5 hPa | - | - | - | - |
| 1777282842 | 2.22° C | 17% | 756.4 hPa | - | - | - | - |
| 1777281941 | 2.78° C | 17% | 756.3 hPa | - | - | - | - |
| 1777281041 | 2.78° C | 17% | 756.1 hPa | - | - | - | - |
| 1777280141 | 2.78° C | 17% | 756.2 hPa | - | - | - | - |
| 1777279241 | 2.78° C | 17% | 756.2 hPa | - | - | - | - |
* Rain since midnight (hover to see other rain measurements)
** Current wind speed in m/s (hover to see current wind gust speed)